Regional Weather Roundup
Issued by NWS

Home | Current Version | Previous Version | Text Only | Print | Product List | Glossary Off
Versions: 1 2 3 4 5 6 7 8 9 10 11 12 13 14 15 16 17 18 19 20 21 22 23 24 25 26 27 28 29 30 31 32 33 34 35 36 37 38 39 40 41 42 43 44 45 46 47 48 49 50

000
ASUS45 KBOI 291010
RWRID

IDAHO REGIONAL WEATHER ROUNDUP
NATIONAL WEATHER SERVICE BOISE ID
400 AM MDT SAT AUG 29 2015

NOTE: "FAIR" INDICATES FEW OR NO CLOUDS BELOW 12000 FEET
WITH NO SIGNIFICANT WEATHER AND/OR OBSTRUCTIONS TO VISIBILITY

IDZ012-014-291100-
SOUTHWEST IDAHO


CITY           SKY/WX    TMP DP  RH WIND       PRES   REMARKS
BOISE          FAIR      78  40  25 E6        29.82R
CALDWELL       FAIR      70  41  35 SE6       29.81R
MOUNTAIN HOME  FAIR      72  41  32 E10       29.83F
$$

IDZ016-017-291100-
SOUTHCENTRAL IDAHO


CITY           SKY/WX    TMP DP  RH WIND       PRES   REMARKS
JEROME         FAIR      71  41  33 E9        29.95F
TWIN FALLS     FAIR      72  41  32 E12       29.96F
$$

IDZ019>023-291100-
SOUTHEAST IDAHO


CITY           SKY/WX    TMP DP  RH WIND       PRES   REMARKS
IDAHO FALLS    MOCLDY    59  50  72 N7        30.06S
POCATELLO      CLEAR     66  44  45 N12       30.03R
REXBURG        PTCLDY    58  43  57 N5        30.08S
$$

IDZ006-010-011-018-031-032-291100-
CENTRAL IDAHO MOUNTAINS


CITY           SKY/WX    TMP DP  RH WIND       PRES   REMARKS
MCCALL         FAIR      61  43  51 CALM      29.95F
HAILEY         FAIR      63  45  51 NW6       30.08F
STANLEY          N/A     60  38  43 SE6       30.14F
SALMON         FAIR      61  50  67 NW6       29.99F
CHALLIS        FAIR      64  44  48 E3        30.05F
$$

IDZ002-004-006-007-026-291100-
NORTHERN IDAHO


CITY           SKY/WX    TMP DP  RH WIND       PRES   REMARKS
LEWISTON       CLOUDY    73  47  39 SE7       29.66F HAZE
LOWELL           N/A     63  53  70 N5        29.78F
COEUR D`ALENE  FAIR      66  46  48 N16       29.74F
MULLAN PASS    FAIR      61  34  36 SE7       30.01F
$$


USA.gov is the U.S. government's official web portal to all federal, state and local government web resources and services.